When you browse on this site, cookies collect data to enhance your experience and personalize the content and advertising you see.
Visit our Privacy Policy to learn more. By continuing to use the site, you agree to this use of cookies and data.

Previsão horária em Midlothian

Hoje, 8 Julho, Quarta-feira

Tempo Temperatura Precipitação Vento Pressão Humidade
00:00 +10°C° 0 mm 1 m/s 737 mmHg 93%
01:00 +9°C° 0.1 mm 2 m/s 737 mmHg 94%
02:00 +8°C° 0.1 mm 2 m/s 737 mmHg 94%
03:00 +8°C° 0.1 mm 2 m/s 737 mmHg 94%
04:00 +9°C° 0 mm 2 m/s 737 mmHg 94%
05:00 +9°C° 0 mm 2 m/s 737 mmHg 93%
06:00 +10°C° 0 mm 2 m/s 737 mmHg 93%
07:00 +10°C° 0.1 mm 2 m/s 738 mmHg 90%
08:00 +11°C° 0.1 mm 3 m/s 738 mmHg 87%
09:00 +11°C° 0.1 mm 3 m/s 738 mmHg 84%
10:00 +12°C° 0.2 mm 3 m/s 738 mmHg 83%
11:00 +12°C° 0.2 mm 4 m/s 738 mmHg 82%
12:00 +13°C° 0.2 mm 4 m/s 738 mmHg 81%
13:00 +13°C° 0.2 mm 4 m/s 738 mmHg 81%
14:00 +13°C° 0.2 mm 4 m/s 738 mmHg 81%
15:00 +13°C° 0.2 mm 4 m/s 738 mmHg 81%
16:00 +13°C° 0.1 mm 4 m/s 737 mmHg 82%
17:00 +12°C° 0.1 mm 4 m/s 737 mmHg 82%
18:00 +12°C° 0.1 mm 4 m/s 737 mmHg 83%
19:00 +11°C° 0.2 mm 4 m/s 737 mmHg 85%
20:00 +11°C° 0.2 mm 3 m/s 737 mmHg 87%
21:00 +10°C° 0.2 mm 3 m/s 737 mmHg 90%
22:00 +10°C° 0.5 mm 3 m/s 736 mmHg 91%
23:00 +9°C° 0.5 mm 2 m/s 736 mmHg 92%

Amanhã, 9 Julho, Quinta-feira

Tempo Temperatura Precipitação Vento Pressão Humidade
00:00 +9°C° 0.5 mm 2 m/s 736 mmHg 94%
01:00 +9°C° 0.2 mm 2 m/s 736 mmHg 94%
02:00 +9°C° 0.2 mm 2 m/s 736 mmHg 94%
03:00 +10°C° 0.2 mm 1 m/s 735 mmHg 95%
04:00 +10°C° 0 mm 1 m/s 735 mmHg 94%
05:00 +10°C° 0 mm 1 m/s 735 mmHg 93%
06:00 +11°C° 0 mm 1 m/s 736 mmHg 92%
07:00 +12°C° 0 mm 1 m/s 736 mmHg 87%
08:00 +13°C° 0 mm 1 m/s 736 mmHg 82%
09:00 +14°C° 0 mm 1 m/s 736 mmHg 76%
10:00 +14°C° 0.1 mm 2 m/s 736 mmHg 74%
11:00 +15°C° 0.1 mm 2 m/s 736 mmHg 72%
12:00 +15°C° 0.1 mm 2 m/s 736 mmHg 70%
13:00 +14°C° 0.3 mm 3 m/s 736 mmHg 72%
14:00 +16°C° 0.3 mm 3 m/s 736 mmHg 75%
15:00 +16°C° 0.3 mm 3 m/s 736 mmHg 77%
16:00 +14°C° 0.8 mm 3 m/s 736 mmHg 81%
17:00 +13°C° 0.8 mm 3 m/s 736 mmHg 85%
18:00 +12°C° 0.8 mm 3 m/s 735 mmHg 89%
19:00 +12°C° 1.1 mm 3 m/s 736 mmHg 90%
20:00 +11°C° 1.1 mm 3 m/s 736 mmHg 92%
21:00 +10°C° 1.1 mm 3 m/s 736 mmHg 93%
22:00 +10°C° 0.4 mm 3 m/s 736 mmHg 94%
23:00 +9°C° 0.4 mm 3 m/s 736 mmHg 95%

Depois de amanhã, 10 Julho, Sexta-feira

Tempo Temperatura Precipitação Vento Pressão Humidade
00:00 +9°C° 0.4 mm 3 m/s 736 mmHg 95%
01:00 +9°C° 0.1 mm 3 m/s 736 mmHg 95%
02:00 +8°C° 0.1 mm 3 m/s 736 mmHg 95%
03:00 +8°C° 0.1 mm 3 m/s 736 mmHg 95%
04:00 +8°C° 0.2 mm 3 m/s 736 mmHg 95%
05:00 +8°C° 0.2 mm 3 m/s 736 mmHg 94%
06:00 +8°C° 0.2 mm 3 m/s 736 mmHg 93%
07:00 +9°C° 0.1 mm 3 m/s 736 mmHg 88%
08:00 +10°C° 0.1 mm 3 m/s 737 mmHg 82%
09:00 +11°C° 0.1 mm 3 m/s 737 mmHg 76%
10:00 +13°C° 0.2 mm 2 m/s 738 mmHg 72%
11:00 +14°C° 0.2 mm 2 m/s 738 mmHg 67%
12:00 +15°C° 0.2 mm 2 m/s 738 mmHg 63%
13:00 +15°C° 0.3 mm 2 m/s 738 mmHg 65%
14:00 +14°C° 0.3 mm 3 m/s 739 mmHg 66%
15:00 +14°C° 0.3 mm 3 m/s 739 mmHg 68%
16:00 +14°C° 0.4 mm 3 m/s 739 mmHg 72%
17:00 +13°C° 0.4 mm 3 m/s 739 mmHg 76%
18:00 +13°C° 0.4 mm 3 m/s 739 mmHg 80%
19:00 +12°C° 0.1 mm 3 m/s 739 mmHg 82%
20:00 +10°C° 0.1 mm 3 m/s 740 mmHg 84%
21:00 +9°C° 0.1 mm 3 m/s 740 mmHg 86%
22:00 +8°C° 0 mm 3 m/s 740 mmHg 87%
23:00 +8°C° 0 mm 3 m/s 740 mmHg 88%

11 Julho, Sábado

Tempo Temperatura Precipitação Vento Pressão Humidade
00:00 +7°C° 0 mm 3 m/s 740 mmHg 89%
01:00 +7°C° 0 mm 3 m/s 741 mmHg 90%
02:00 +5°C° 0 mm 3 m/s 741 mmHg 90%
03:00 +5°C° 0 mm 3 m/s 741 mmHg 91%
04:00 +7°C° 0 mm 3 m/s 741 mmHg 90%
05:00 +8°C° 0 mm 3 m/s 742 mmHg 88%
06:00 +8°C° 0 mm 3 m/s 742 mmHg 87%
07:00 +10°C° 0 mm 4 m/s 742 mmHg 80%
08:00 +11°C° 0 mm 4 m/s 743 mmHg 73%
09:00 +13°C° 0 mm 5 m/s 743 mmHg 66%
10:00 +13°C° 0 mm 5 m/s 744 mmHg 66%
11:00 +14°C° 0 mm 5 m/s 744 mmHg 65%
12:00 +14°C° 0 mm 5 m/s 744 mmHg 64%
13:00 +15°C° 0 mm 5 m/s 744 mmHg 64%
14:00 +15°C° 0 mm 5 m/s 744 mmHg 65%
15:00 +15°C° 0 mm 5 m/s 744 mmHg 65%
16:00 +15°C° 0 mm 5 m/s 744 mmHg 67%
17:00 +14°C° 0 mm 5 m/s 744 mmHg 69%
18:00 +14°C° 0 mm 5 m/s 744 mmHg 71%
19:00 +12°C° 0 mm 5 m/s 744 mmHg 76%
20:00 +11°C° 0 mm 4 m/s 744 mmHg 80%
21:00 +8°C° 0 mm 4 m/s 744 mmHg 85%
22:00 +8°C° 0 mm 4 m/s 744 mmHg 87%
23:00 +7°C° 0 mm 4 m/s 744 mmHg 89%

12 Julho, Domingo

Tempo Temperatura Precipitação Vento Pressão Humidade
00:00 +6°C° 0 mm 4 m/s 744 mmHg 90%
01:00 +6°C° 0 mm 4 m/s 744 mmHg 90%
02:00 +6°C° 0 mm 4 m/s 744 mmHg 90%
03:00 +6°C° 0 mm 4 m/s 744 mmHg 90%
04:00 +7°C° 0 mm 4 m/s 744 mmHg 88%
05:00 +7°C° 0 mm 4 m/s 744 mmHg 86%
06:00 +8°C° 0 mm 4 m/s 744 mmHg 83%
07:00 +11°C° 0 mm 4 m/s 744 mmHg 80%
08:00 +12°C° 0 mm 4 m/s 744 mmHg 77%
09:00 +13°C° 0 mm 5 m/s 744 mmHg 73%
10:00 +14°C° 0 mm 5 m/s 744 mmHg 74%
11:00 +14°C° 0 mm 5 m/s 744 mmHg 74%
12:00 +15°C° 0 mm 5 m/s 744 mmHg 74%
13:00 +14°C° 0.1 mm 5 m/s 744 mmHg 78%
14:00 +13°C° 0.1 mm 5 m/s 743 mmHg 81%
15:00 +12°C° 0.1 mm 5 m/s 743 mmHg 85%
16:00 +12°C° 0 mm 5 m/s 743 mmHg 84%
17:00 +12°C° 0 mm 5 m/s 743 mmHg 83%
18:00 +12°C° 0 mm 4 m/s 743 mmHg 82%
19:00 +12°C° 0 mm 4 m/s 742 mmHg 84%
20:00 +12°C° 0 mm 4 m/s 742 mmHg 86%
21:00 +11°C° 0 mm 4 m/s 742 mmHg 87%
22:00 +12°C° 0.1 mm 4 m/s 742 mmHg 88%
23:00 +12°C° 0.1 mm 4 m/s 741 mmHg 89%

13 Julho, Segunda-feira

Tempo Temperatura Precipitação Vento Pressão Humidade
00:00 +12°C° 0.1 mm 5 m/s 741 mmHg 90%
01:00 +12°C° 0.2 mm 5 m/s 741 mmHg 91%
02:00 +12°C° 0.2 mm 4 m/s 740 mmHg 93%
03:00 +12°C° 0.2 mm 4 m/s 740 mmHg 94%
04:00 +12°C° 0.3 mm 4 m/s 739 mmHg 94%
05:00 +12°C° 0.3 mm 4 m/s 739 mmHg 95%
06:00 +12°C° 0.3 mm 4 m/s 739 mmHg 96%
07:00 +12°C° 0 mm 4 m/s 739 mmHg 94%
08:00 +12°C° 0 mm 4 m/s 738 mmHg 92%
09:00 +13°C° 0 mm 5 m/s 738 mmHg 90%
10:00 +13°C° 0.1 mm 5 m/s 738 mmHg 86%
11:00 +14°C° 0.1 mm 6 m/s 738 mmHg 83%
12:00 +15°C° 0.1 mm 6 m/s 738 mmHg 80%
13:00 +14°C° 0.2 mm 6 m/s 738 mmHg 83%
14:00 +14°C° 0.2 mm 6 m/s 737 mmHg 86%
15:00 +13°C° 0.2 mm 6 m/s 737 mmHg 89%
16:00 +13°C° 0 mm 6 m/s 737 mmHg 88%
17:00 +13°C° 0 mm 6 m/s 737 mmHg 87%
18:00 +14°C° 0 mm 6 m/s 737 mmHg 87%
19:00 +13°C° 0 mm 6 m/s 737 mmHg 87%
20:00 +11°C° 0 mm 6 m/s 737 mmHg 87%
21:00 +11°C° 0 mm 6 m/s 737 mmHg 88%
22:00 +10°C° 0 mm 6 m/s 737 mmHg 88%
23:00 +9°C° 0 mm 6 m/s 737 mmHg 88%
Mostrar mais